BREEZE-M DEB (TANK), 42908

Orbit data source: Space-Track

BREEZE-M DEB (TANK), 42908 is space debris in HEO originally from a launch on Wed, 16 Aug 2017 UTC launched from the Tyuratam Missile And Space Complex (TTMTR). Debris objects in space refer to the collection of defunct objects orbiting the Earth. Examples of debris include non-operational satellites, rocket bodies, and fragments generated from explosions, collisions, or faulty payload assembly.

Loading next visibility...
Identifier
42908, 2017-046B
Orbit
HEO
Country
Flag of CISCIS
Related business
Manufacturer
Khrunichev
Mission
Spacecraft
Bus & Motor
BRIZ TANK, Unknown motor
Mass
~1,000 kg wet, 1,000 kg dry
Launch date (UTC)
2017-08-16 (8 years ago)
Launch vehicle
Unknown
Launch site
Tyuratam Missile And Space Complex (TTMTR)
Object type
Payload
Rocket body
Debris
Shape & HBR
Torus, 2.0 m
Radar Cross Section
8.218 m², Large (>1 m²)

Expand to show TLE details & history
Last TLE update: 2 days ago

TLE from 2 days ago
0 BREEZE-M DEB (TANK)
1 42908U 17046B   26011.74110906  .00015362  00000-0  16892-2 0  9994
2 42908  48.0916 183.4363 7207635  46.9614 354.1721  2.39400247 71496
Epoch: 2026-01-11T17:47Z
TLE epoch observation values (Epoch: 2026-01-11T17:47:11.822Z)
Latitude
0.00003°
Longitude
165.33435°
Altitude
1,224.086 km
Speed
9.38 km/s
True Right ascension
12h 13m 31s
True Declination
0° 00' 00"
Sunlit
Object was in daylight at epoch
Visualization orbit readout
Latitude
Unknown
Longitude
Unknown
Altitude
Unknown
Speed
Unknown
Apparent Right ascension
Unknown
Apparent Declination
Unknown
Sunlit
N/A
Visualization observer readout
Local Sidereal Time
06:54:43
Azimuth
Unknown
Elevation
Unknown
Doppler factor
Unknown
Orbital elements
Apogee altitude
34,240.406 km
Perigee altitude
213.228 km
Semi-major axis
23,604.954 km
Eccentricity
0.72076
Inclination
48.0916°
RAAN
183.4363°
Arg. of periapsis
46.9614°
True anomaly
313.03916°
Mean anomaly
354.1721°
Eccentric anomaly
340.14825°
Mean motion
0.59846 °/min
Orbital period
601.54 mins
BSTAR
0.0016892
Loading maneuver chart data...
Computing Atmospheric mass density...
Loading historical data...
Loading historical data...
Loading historical data...
Loading historical data...
Loading historical data...
Loading historical data...
Loading historical data...
Other satellites on launch #46 in the year 2017 (2017-08-16 UTC)

Documentation

Showing up to 5 results
|